Conditions actuelles
Plutôt dégagé




Pression
30.03 (inHG) - 1016.92 (mb)
Visibilité

10.0 (km) - 6.2 (miles)
   Température
18  °C
64°F
12  °C
Point de rosée
68  %
 Humidité
   Vitesse du vent
5  km/h
3  kts
3  mph
1.3  m/s
   Direction du vent
 90°
De L'est
   Données d'aéroport
LFBU
Location Angoulême-Brie-Champniers 6 km (3.73 mi)
Metar :LFBU 020700Z AUTO 09003KT 050V140 CAVOK 18/12 Q1017
02-06-2020 09:00:00
   Information brute de métar
Le METAR brut est le format le plus répandu dans le monde pour la transmission de données météorologiques d'observation. Il est hautement standardisé par l'Organisation de l'aviation civile internationale (OACI), ce qui lui permet d'être compris dans la plupart des pays.
   API Info
Données fournies par
https://www.checkwx.com/weather/LFBU
   © Info
Les scripts CSS / SVG / PHP ont été développés par weather34.com pour une utilisation dans le modèle weather34 © 2015-2020

Guide Info fourni par Metar-Wikipedia